EA3CTN-13 Weather Reports


Display with metric or nautical units.
time (UTC)temp
F
wind
direction
speed
MPH
gust
MPH
rain 1hr
in
rain 24hr
in
rain mn
in
humidity
%
barometer
mb
20260509150816 68 0.0 0.0 0.00 0.00 0.00 64 1012.6
20260509150016 68 0.0 0.0 0.00 0.00 0.00 64 1010.8
20260509145216 67 0.0 0.0 0.00 0.00 0.00 65 1009.9
20260509144416 68 0.0 0.0 0.00 0.00 0.00 63 1010.3
20260509143616 68 0.0 0.0 0.00 0.00 0.00 63 1010.7
20260509142816 68 0.0 0.0 0.00 0.00 0.00 64 1010.9
20260509142016 68 0.0 0.0 0.00 0.00 0.00 62 1011.6
20260509141216 68 0.0 0.0 0.00 0.00 0.00 62 1012.5
20260509140416 69 0.0 0.0 0.00 0.00 0.00 62 1013.1
20260509135616 69 0.0 0.0 0.00 0.00 0.00 61 1013.1
20260509134816 69 0.0 0.0 0.00 0.00 0.00 60 1013.5
20260509134016 69 0.0 0.0 0.00 0.00 0.00 60 1013.6
20260509133216 69 0.0 0.0 0.00 0.00 0.00 57 1013.7
20260509132416 69 0.0 0.0 0.00 0.00 0.00 57 1013.4
20260509131616 69 0.0 0.0 0.00 0.00 0.00 57 1013.2
20260509130816 69 0.0 0.0 0.00 0.00 0.00 56 1013.0
20260509130016 69 0.0 0.0 0.00 0.00 0.00 56 1012.3
20260509125216 69 0.0 0.0 0.00 0.00 0.00 56 1012.0
20260509124416 70 0.0 0.0 0.00 0.00 0.00 56 1011.9
20260509123616 70 0.0 0.0 0.00 0.00 0.00 56 1012.0
20260509122816 69 0.0 0.0 0.00 0.00 0.00 57 1012.2
20260509122016 69 0.0 0.0 0.00 0.00 0.00 58 1012.5
20260509121216 70 0.0 0.0 0.00 0.00 0.00 59 1012.7
20260509120416 70 0.0 0.0 0.00 0.00 0.00 58 1013.2
20260509115616 70 0.0 0.0 0.00 0.00 0.00 58 1013.5
20260509114816 70 0.0 0.0 0.00 0.00 0.00 59 1013.9
20260509114016 69 0.0 0.0 0.00 0.00 0.00 60 1014.3
20260509113216 69 0.0 0.0 0.00 0.00 0.00 60 1014.4
20260509112416 69 0.0 0.0 0.00 0.00 0.00 60 1014.5
20260509111615 70 0.0 0.0 0.00 0.00 0.00 58 1014.6
20260509110816 70 0.0 0.0 0.00 0.00 0.00 55 1014.3
20260509110015 71 0.0 0.0 0.00 0.00 0.00 54 1014.2
20260509105215 71 0.0 0.0 0.00 0.00 0.00 55 1014.1
20260509103723 69 0.0 0.0 0.00 0.00 0.00 60 1014.4
20260509102923 69 0.0 0.0 0.00 0.00 0.00 61 1014.4
20260509102123 69 0.0 0.0 0.00 0.00 0.00 60 1014.6
20260509101323 69 0.0 0.0 0.00 0.00 0.00 60 1014.5
20260509100524 69 0.0 0.0 0.00 0.00 0.00 63 1014.3
20260509095723 68 0.0 0.0 0.00 0.00 0.00 61 1014.3
20260509094923 69 0.0 0.0 0.00 0.00 0.00 60 1014.3
20260509094123 69 0.0 0.0 0.00 0.00 0.00 60 1014.1
20260509093323 69 0.0 0.0 0.00 0.00 0.00 60 1014.1
20260509092523 69 0.0 0.0 0.00 0.00 0.00 60 1013.9
20260509091723 68 0.0 0.0 0.00 0.00 0.00 61 1013.9
20260509090923 68 0.0 0.0 0.00 0.00 0.00 62 1013.9
20260509090123 68 0.0 0.0 0.00 0.00 0.00 63 1013.7
20260509085324 68 0.0 0.0 0.00 0.00 0.00 64 1013.6
20260509084524 68 0.0 0.0 0.00 0.00 0.00 65 1013.6
20260509083723 67 0.0 0.0 0.00 0.00 0.00 66 1013.5
20260509082923 67 0.0 0.0 0.00 0.00 0.00 66 1013.6
20260509082123 67 0.0 0.0 0.00 0.00 0.00 67 1013.5
20260508220523 69 0.0 0.0 0.00 0.00 0.00 60 1016.0
20260508215723 69 0.0 0.0 0.00 0.00 0.00 60 1016.0
20260508214923 69 0.0 0.0 0.00 0.00 0.00 60 1015.8
20260508214123 69 0.0 0.0 0.00 0.00 0.00 60 1015.8
20260508213323 69 0.0 0.0 0.00 0.00 0.00 60 1015.9
20260508212523 69 0.0 0.0 0.00 0.00 0.00 59 1016.0
20260508211723 69 0.0 0.0 0.00 0.00 0.00 59 1016.0
20260508210923 69 0.0 0.0 0.00 0.00 0.00 59 1016.0
20260508210123 69 0.0 0.0 0.00 0.00 0.00 58 1016.1
20260508205323 69 0.0 0.0 0.00 0.00 0.00 59 1016.1
20260508204523 69 0.0 0.0 0.00 0.00 0.00 59 1016.0
20260508203723 69 0.0 0.0 0.00 0.00 0.00 58 1015.9
20260508202923 69 0.0 0.0 0.00 0.00 0.00 58 1015.8
20260508202123 69 0.0 0.0 0.00 0.00 0.00 57 1015.7
20260508201323 69 0.0 0.0 0.00 0.00 0.00 56 1015.6
20260508200523 69 0.0 0.0 0.00 0.00 0.00 56 1015.5
20260508195723 69 0.0 0.0 0.00 0.00 0.00 55 1015.4
20260508194923 69 0.0 0.0 0.00 0.00 0.00 55 1015.4
20260508194123 69 0.0 0.0 0.00 0.00 0.00 55 1015.3
20260508193323 70 0.0 0.0 0.00 0.00 0.00 54 1015.2
20260508192523 70 0.0 0.0 0.00 0.00 0.00 53 1015.2
20260508191723 70 0.0 0.0 0.00 0.00 0.00 52 1015.1
20260508190923 70 0.0 0.0 0.00 0.00 0.00 51 1015.0
20260508190123 70 0.0 0.0 0.00 0.00 0.00 49 1014.9
20260508185323 70 0.0 0.0 0.00 0.00 0.00 47 1014.8
20260508184523 71 0.0 0.0 0.00 0.00 0.00 47 1014.8
20260508183723 71 0.0 0.0 0.00 0.00 0.00 46 1014.8
20260508182923 71 0.0 0.0 0.00 0.00 0.00 47 1014.7
20260508182123 72 0.0 0.0 0.00 0.00 0.00 46 1014.5
20260508181323 72 0.0 0.0 0.00 0.00 0.00 47 1014.4
20260508180523 72 0.0 0.0 0.00 0.00 0.00 48 1014.3
20260508175723 72 0.0 0.0 0.00 0.00 0.00 48 1014.3
20260508174923 73 0.0 0.0 0.00 0.00 0.00 48 1014.3
20260508174123 73 0.0 0.0 0.00 0.00 0.00 48 1014.3
20260508173323 73 0.0 0.0 0.00 0.00 0.00 48 1014.3
20260508172523 73 0.0 0.0 0.00 0.00 0.00 48 1014.3
20260508171723 74 0.0 0.0 0.00 0.00 0.00 45 1014.3
20260508170923 74 0.0 0.0 0.00 0.00 0.00 45 1014.2
20260508170123 76 0.0 0.0 0.00 0.00 0.00 41 1014.1
20260508165323 76 0.0 0.0 0.00 0.00 0.00 43 1014.0
20260508164523 78 0.0 0.0 0.00 0.00 0.00 41 1014.0
20260508163723 82 0.0 0.0 0.00 0.00 0.00 37 1013.9
20260508162923 83 0.0 0.0 0.00 0.00 0.00 34 1013.8
20260508162123 80 0.0 0.0 0.00 0.00 0.00 38 1014.0
20260508161323 86 0.0 0.0 0.00 0.00 0.00 31 1013.6
20260508160523 90 0.0 0.0 0.00 0.00 0.00 28 1013.8
20260508155723 82 0.0 0.0 0.00 0.00 0.00 35 1014.0
20260508154923 74 0.0 0.0 0.00 0.00 0.00 44 1014.2
20260508154125 73 0.0 0.0 0.00 0.00 0.00 45 1014.3
20260508153323 74 0.0 0.0 0.00 0.00 0.00 45 1014.4
20260508152523 72 0.0 0.0 0.00 0.00 0.00 47 1014.5
20260508151723 72 0.0 0.0 0.00 0.00 0.00 48 1014.5